IK3JLT-13 Weather Reports


Display with metric or nautical units.
time (UTC)temp
F
wind
direction
speed
MPH
gust
MPH
rain 1hr
in
rain 24hr
in
rain mn
in
humidity
%
barometer
mb
20260506174720 62 45 2.0 3.0 0.00 0.43 0.00 84 1008.2
20260506173720 62 135 2.0 2.0 0.00 0.44 0.00 83 1008.3
20260506172719 62 0 2.0 2.0 0.00 0.44 0.00 83 1008.1
20260506171720 62 180 2.0 2.0 0.00 0.44 0.00 83 1008.2
20260506170719 62 135 3.0 4.0 0.00 0.44 0.00 81 1008.0
20260506165718 62 135 3.0 4.0 0.00 0.46 0.00 80 1007.9
20260506164716 63 180 2.0 2.0 0.00 0.46 0.00 76 1008.1
20260506163716 63 135 2.0 2.0 0.00 0.46 0.00 74 1008.1
20260506162716 63 135 2.0 2.0 0.00 0.46 0.00 74 1008.2
20260506161715 63 180 0.0 0.0 0.01 0.46 0.00 73 1008.1
20260506160714 63 315 3.0 4.0 0.01 0.48 0.00 74 1008.0
20260506155715 63 315 4.0 4.0 0.02 0.49 0.00 79 1007.9
20260506154713 62 315 2.0 2.0 0.02 0.49 0.00 82 1007.9
20260506153714 61 270 2.0 3.0 0.03 0.50 0.00 85 1008.0
20260506152712 61 0 6.0 7.0 0.05 0.54 0.00 90 1008.1
20260506151712 62 270 3.0 4.0 0.07 0.53 0.00 91 1008.1
20260506150710 62 270 4.0 5.0 0.08 0.53 0.00 91 1008.3
20260506145712 62 315 4.0 5.0 0.08 0.51 0.00 90 1008.4
20260506144709 62 315 2.0 2.0 0.07 0.50 0.00 88 1008.2
20260506143709 62 270 1.0 2.0 0.05 0.50 0.00 87 1008.3
20260506142709 62 90 1.0 2.0 0.03 0.48 0.00 86 1008.3
20260506141708 62 90 3.0 4.0 0.01 0.46 0.00 85 1008.3
20260506140707 62 135 8.0 9.0 0.00 0.44 0.00 83 1008.4
20260506135706 63 90 4.0 6.0 0.00 0.44 0.00 81 1008.3
20260506134706 64 0 3.0 4.0 0.00 0.44 0.00 76 1008.4
20260506133706 64 45 2.0 3.0 0.00 0.44 0.00 76 1008.4
20260506132706 64 180 1.0 2.0 0.00 0.46 0.00 78 1008.5
20260506131706 63 0 2.0 3.0 0.00 0.46 0.00 81 1008.6
20260506130706 63 45 4.0 5.0 0.00 0.46 0.00 83 1008.8
20260506125706 62 315 4.0 5.0 0.01 0.46 0.00 88 1008.9
20260506124706 61 315 4.0 5.0 0.02 0.46 0.00 90 1009.1
20260506123706 61 0 4.0 4.0 0.03 0.46 0.00 91 1009.0
20260506122706 60 315 4.0 5.0 0.04 0.46 0.00 91 1009.0
20260506121705 60 315 4.0 5.0 0.04 0.47 0.00 90 1008.9
20260506120707 60 0 4.0 5.0 0.04 0.46 0.00 90 1009.0
20260506115706 61 315 4.0 6.0 0.04 0.47 0.00 88 1009.1
20260506114705 61 315 5.0 6.0 0.04 0.47 0.00 88 1009.1
20260506113706 62 315 5.0 7.0 0.07 0.44 0.00 88 1009.0
20260506112707 62 270 2.0 2.0 0.14 0.44 0.00 88 1009.0
20260506111706 61 315 2.0 3.0 0.12 0.43 0.00 89 1008.9
20260506110706 61 270 4.0 4.0 0.12 0.43 0.00 91 1009.1
20260506105706 61 225 1.0 2.0 0.12 0.43 0.00 90 1009.2
20260506104706 61 180 2.0 2.0 0.09 0.41 0.00 88 1009.3
20260506103706 62 180 7.0 8.0 0.00 0.33 0.00 85 1009.4
20260506102705 63 0 4.0 5.0 0.00 0.33 0.00 84 1009.3
20260506101706 63 270 2.0 2.0 0.00 0.34 0.00 84 1009.3
20260506100706 63 45 3.0 4.0 0.00 0.34 0.00 85 1009.3
20260506095706 63 0 4.0 5.0 0.00 0.34 0.00 87 1009.3
20260506094706 62 45 5.0 7.0 0.00 0.34 0.00 89 1009.3
20260506093706 62 45 6.0 8.0 0.00 0.34 0.00 90 1009.5
20260506092707 62 90 5.0 6.0 0.00 0.34 0.00 90 1009.4
20260506091706 62 45 7.0 8.0 0.00 0.34 0.00 89 1009.4
20260506090705 62 0 8.0 10.0 0.00 0.34 0.00 89 1009.3
20260506085706 62 45 8.0 9.0 0.00 0.34 0.00 90 1009.2
20260506084706 62 45 8.0 9.0 0.00 0.34 0.00 90 1009.0
20260506083708 61 90 5.0 7.0 0.00 0.34 0.00 89 1009.1
20260506082706 61 90 9.0 11.0 0.00 0.34 0.00 86 1009.0
20260506081706 62 90 10.0 14.0 0.00 0.34 0.00 86 1008.9
20260506080707 61 90 10.0 13.0 0.00 0.34 0.00 85 1008.9
20260506072706 60 45 8.0 10.0 0.00 0.34 0.00 87 1009.1
20260506071707 60 45 7.0 8.0 0.00 0.34 0.00 87 1009.2
20260506070706 60 90 8.0 11.0 0.00 0.34 0.00 87 1009.3
20260506061706 59 90 5.0 7.0 0.00 0.34 0.00 88 1009.4
20260506060706 59 90 8.0 9.0 0.00 0.34 0.00 89 1009.2
20260506050705 58 90 8.0 10.0 0.00 0.34 0.00 90 1009.2
20260506044706 58 90 4.0 6.0 0.00 0.34 0.00 89 1009.2
20260506043707 58 90 3.0 4.0 0.00 0.34 0.00 89 1009.2
20260506042706 58 90 4.0 5.0 0.00 0.34 0.00 90 1009.1
20260506041706 57 45 7.0 10.0 0.00 0.34 0.00 90 1009.1
20260506040706 57 90 4.0 6.0 0.00 0.34 0.00 91 1009.3
20260506035707 57 45 5.0 8.0 0.00 0.34 0.00 91 1009.4
20260506034707 56 45 4.0 5.0 0.00 0.34 0.00 91 1009.6
20260506033707 56 90 3.0 4.0 0.00 0.34 0.00 91 1009.7
20260506032708 56 90 4.0 5.0 0.01 0.34 0.00 91 1009.7
20260506031706 56 45 4.0 4.0 0.01 0.34 0.00 92 1009.8
20260506030706 56 90 2.0 4.0 0.01 0.34 0.00 93 1009.8
20260506025706 56 90 4.0 6.0 0.01 0.34 0.00 94 1009.8
20260506024705 56 90 4.0 7.0 0.01 0.34 0.00 95 1009.8
20260506023705 56 90 3.0 4.0 0.01 0.34 0.00 96 1009.9
20260506022705 56 90 5.0 6.0 0.00 0.33 0.00 96 1009.8
20260506021706 55 45 6.0 8.0 0.00 0.33 0.00 96 1010.2
20260506020705 55 22 4.0 4.0 0.00 0.33 0.00 96 1010.3
20260506015705 55 90 2.0 2.0 0.00 0.33 0.00 96 1010.5
20260506014705 55 90 2.0 3.0 0.00 0.33 0.00 95 1010.6
20260506013706 55 45 2.0 3.0 0.00 0.33 0.00 95 1010.3
20260506012705 55 45 4.0 4.0 0.00 0.33 0.00 95 1010.3
20260506011705 55 45 2.0 2.0 0.00 0.33 0.00 95 1010.4
20260506010705 55 90 0.0 1.0 0.00 0.33 0.00 95 1010.4
20260506005705 56 0 2.0 2.0 0.00 0.33 0.00 95 1010.5
20260506004705 56 90 2.0 3.0 0.00 0.33 0.00 95 1010.2
20260506003705 56 45 2.0 2.0 0.00 0.33 0.00 95 1010.3